Location: Lincolnton
(35.4660°N, 81.2500°W)
Time: 03:42:16
(UTC-04:00)

HST - Visible Passes

Search period start: 23 April 2014 00:00
Search period end: 03 May 2014 00:00
Orbit: 549 x 553 km, 28.5° (Epoch: 22 April)

Date Brightness Start Highest point End Pass type
(mag) Time Alt. Az. Time Alt. Az. Time Alt. Az.
23 Apr 2.2 20:40:40 10° WSW 20:44:12 26° S 20:47:39 10° SE visible
23 Apr 3.5 22:23:13 10° SW 22:23:14 10° SW 22:23:14 10° SW visible
24 Apr 2.4 20:34:15 10° WSW 20:37:37 24° SSW 20:40:58 10° SE visible
25 Apr 2.6 20:27:53 10° WSW 20:31:00 20° SSW 20:34:07 10° SSE visible
